Location: Plainartige
(45.6866°N, 1.7993°E)
Time: 14:54:08
(UTC+00:00)

Cosmos 1302 Rocket - Pass Details

Date: 03 March 2021
Orbit: 756 x 777 km, 74.0° (Epoch: 11 April)

Event Time Altitude Azimuth Distance (km) Brightness Sun altitude
Rises 18:07:06 0° 201° (SSW) 3,197 7.6 -5.1°
Reaches altitude 10° 18:09:27 10° 201° (SSW) 2,277 6.8 -5.5°
Maximum altitude 18:14:38 86° 291° (WNW) 766 4.1 -6.4°
Drops below altitude 10° 18:19:52 10° 21° (NNE) 2,301 6.3 -7.3°
Sets 18:22:15 0° 22° (NNE) 3,234 7.0 -7.7°
